User: anonymous
Location: Caltech
(34.1382°N, 118.1253°W)
Time: 01:10:11
(UTC-07:00)
Language:

SEDSat Delta rocket - Orbit

View from above orbital plane
View from above orbital plane
View from above satellite
View from above satellite

Ground track
Ground track

The orbit data is extracted from the following two-line orbital elements,

1 25510U 98061C   14242.17167640  .00000919  00000-0  15477-3 0  9415
2 25510 031.4334 238.0149 0332967 023.9254 051.2309 14.35827863830227
Epoch (UTC): 30 August 2014 04:07:12
Eccentricity: 0.0332967
inclination: 31.4334°
perigee height: 534 km
apogee height: 1010 km
right ascension of ascending node: 238.0149°
argument of perigee: 23.9254°
revolutions per day: 14.35827863
mean anomaly at epoch: 51.2309°
orbit number at epoch: 83022

The dashed part of the orbit path shows where the satellite is in the earth's shadow,  

DLR